Location: Unspecified
(32.8157°N, 0.0000°E)
Time: 11:28:16
(UTC+00:00)

Tiangong 2 - Visible Passes

Search period start: 25 June 2019 00:00
Search period end: 05 July 2019 00:00
Orbit: 376 x 388 km, 42.8° (Epoch: 25 June)

Date Brightness Start Highest point End Pass type
(mag) Time Alt. Az. Time Alt. Az. Time Alt. Az.
25 Jun 3.1 02:39:17 23° E 02:39:17 23° E 02:40:55 10° ENE visible
25 Jun 2.5 04:11:51 10° W 04:14:44 32° NNW 04:17:37 10° NE visible
26 Jun 1.4 03:13:50 47° WNW 03:14:25 57° NNW 03:17:33 10° NE visible
27 Jun 3.6 02:16:12 20° ENE 02:16:12 20° ENE 02:17:20 10° ENE visible
27 Jun 3.2 03:48:34 10° WNW 03:51:06 22° NNW 03:53:39 10° NE visible
28 Jun 2.4 02:50:40 32° NNW 02:50:43 33° NNW 02:53:37 10° NE visible
28 Jun 3.8 04:26:14 10° NW 04:28:02 14° N 04:29:50 10° NNE visible
29 Jun 4.3 01:52:58 14° NE 01:52:58 14° NE 01:53:31 10° NE visible
29 Jun 3.7 03:25:23 10° NW 03:27:31 17° NNW 03:29:40 10° NNE visible
30 Jun 3.4 02:27:25 22° N 02:27:25 22° N 02:29:36 10° NE visible
30 Jun 4.0 04:02:51 10° NNW 04:04:30 13° N 04:06:10 10° NNE visible
01 Jul 3.9 03:02:10 10° NW 03:03:57 14° N 03:05:45 10° NNE visible
02 Jul 4.0 02:04:09 16° N 02:04:09 16° N 02:05:35 10° NNE visible
02 Jul 4.0 03:39:11 10° NNW 03:40:57 14° N 03:42:44 10° NE visible
03 Jul 4.1 02:38:46 10° NNW 02:40:24 13° N 02:42:02 10° NNE visible
03 Jul 3.7 04:15:20 10° NW 04:17:52 21° NNE 04:20:23 10° ENE visible
04 Jul 4.6 01:41:06 12° NNE 01:41:06 12° NNE 01:41:38 10° NNE visible
04 Jul 4.1 03:15:17 10° NNW 03:17:22 16° N 03:19:27 10° NE visible
